Погода в Новоникольском

Россия / Тюменская область     57°39′25″N   65°14′15″E
темп.,
°C
ветер,
м/с
пор.,
м/с
влажн.,
%
обл.,
%
осадки,
мм/ч
давл.,
гПа
погр.,
м
11 апреля, вс
вс1123:00+5ю4119692 0.0 1036374
02:00+3ю3119540 0.0 1036343
05:00+2ю5139569 0.0 1036393
08:00+4ю51488100 0.0 1035422
11:00+9ююз61473100 0.0 1034567
14:00+11ююз61470100 0.0 1033648
17:00+10ююз61474100 0.0 1032596
20:00+7ююз5138598 0.0 1031430
12 апреля, пн
пн1223:00+7юз4139199 0.0 1031395
02:00+7зюз31094100 0.1 1030355
05:00+7з2798100 0.6 1032298
08:00+7сз369097 0.1 1033550
11:00+9сз3561100 0.1 1034748
14:00+11сз4755100 0.0 10341444
17:00+11сз4650100 0.0 10351588
20:00+6сз23600 0.0 103742
13 апреля, вт
вт1323:00+4сз22700 0.0 103928
02:00+2зсз23760 0.0 103945
05:00+1з23834 0.0 104050
08:00+4з24690 0.0 1041199
11:00+9зюз35450 0.0 1040754
14:00+11зюз45365 0.0 10381014
17:00+12зюз46400 0.0 1037961
20:00+7юз26665 0.0 1036122
14 апреля, ср
ср1423:00+6юз3107798 0.0 1034216
02:00+5юз31285100 0.0 1033264
05:00+6юз41292100 0.0 1031270
08:00+8зюз41287100 0.0 1030405
11:00+14зюз596655 0.0 1028658
14:00+17з5855100 0.0 10271156
17:00+17з4758100 0.0 10261368
20:00+12юз397893 0.0 1025155
15 апреля, чт
чт1523:00+10зюз268894 0.0 1024106
02:00+9зюз239076 0.0 102361
05:00+7зюз3118947 0.0 1022211
08:00+10зюз4116954 0.0 1021386
11:00+15з584740 0.0 1020903
14:00+18з57395 0.0 10191358
17:00+18з474416 0.0 10181453
20:00+12юз386334 0.0 1017127